PISAT

Last updated on Tue Sep 22 2026 00:03:48 GMT+0000 (Coordinated Universal Time)

1 41784U 16059B 26264.24978210 .00000514 00000+0 95075-4 0 9997 2 41784 97.8254 260.6162 0027481 258.1806 101.6318 14.69132068533849
UTC large
Height (km)
Speed (km/s)
/
Latitude / Longitude
Inclination (degrees)
Orbital Period (minutes)
Azimuth
Elevation
Range (km)
Doppler Factor

Next 0 passes for location: London (51.5072 / 0.1276)

No passes found over London.
PISAT